Regional Weather Roundup
Issued by NWS New Orleans/Baton Rouge, LA

Home | Current Version | Previous Version | Graphics & Text | Print | Product List | Glossary On
Versions: 1 2 3 4 5 6 7 8 9 10 11 12 13 14 15 16 17 18 19 20 21 22 23 24 25 26 27 28 29 30 31 32 33 34 35 36 37 38 39 40 41 42 43 44 45 46 47 48 49 50
205
ASUS44 KLIX 200211
RWRLIX
NEW ORLEANS REGIONAL WEATHER ROUNDUP
NATIONAL WEATHER SERVICE NEW ORLEANS LA
900 PM CDT SUN APR 19 2015

NOTE: "FAIR" INDICATES FEW OR NO CLOUDS BELOW 12,000 FEET WITH NO
      SIGNIFICANT WEATHER AND/OR OBSTRUCTIONS TO VISIBILITY.
      SKY/WX - SKY CONDITION AND SIGNIFICANT WEATHER.
      TMP - AIR TEMPERATURE.     DP    - DEWPOINT TEMPERATURE.
      RH  - RELATIVE HUMIDITY.   PRES  - PRESSURE.
      HI  - HEAT INDEX.          WCI   - WIND CHILL INDEX.

*  THESE STATIONS ARE NOT NWS OR FAA STATIONS AND ARE NOT UNDER
   NWS QUALITY CONTROL.

LAZ038-040-048-061>063-065>067-069-200300-
SOUTHEAST LOUISIANA

CITY           SKY/WX    TMP DP  RH WIND       PRES   REMARKS
N.O. AUDUBON     N/A     73  67  83 MISG        N/A
N.O. INTL ARPT PTCLDY    74  58  57 SW9       29.77R
N.O. LAKEFRONT CLEAR     78  62  57 SW7       29.76S
SLIDELL        CLEAR     70  66  87 CALM      29.75S
BATON ROUGE    CLEAR     73  61  65 S8        29.75R
BOOTHVILLE     CLOUDY    74  72  93 S6        29.80S
BELLE CHASSE   PTCLDY    70  66  87 SW6       29.77S
BOGALUSA*        N/A     75  61  61 S6        29.76R
GALLIANO*      MOCLDY    73  69  86 CALM      29.79R
NEW ROADS*       N/A     72  61  68 S7        29.77R
GONZALES*        N/A     71  64  78 S3        29.76R
HAMMOND*       CLEAR     75  63  64 SW5       29.77S
HOUMA*         PTCLDY    71  66  85 CALM      29.78R
PORT FOURCHON* CLEAR     75  72  88 S5        29.83R

$$

MSZ070-080>082-200300-
SOUTHERN MISSISSIPPI

CITY           SKY/WX    TMP DP  RH WIND       PRES   REMARKS
MCCOMB         MOCLDY    69  64  84 S5        29.74R
GULFPORT       PTCLDY    76  64  66 S3        29.76S
BILOXI         PTCLDY    75  67  76 SW8       29.77R
PASCAGOULA     PTCLDY    74  70  87 S6        29.78R

$$

COASTAL OBSERVATIONS
LAKE AND NEARSHORE STATIONS

STATION/POSITION TIME  TEMP    WIND        PRES    WAVE
                       AIR SEA DIR/SP/G            HT/PER
                 (UTC) (F)     (DEG/KT/KT) (MB)    (FT/S)
PASCAGOULA       0100   76     210/ 14/ 16 1007.8
WAVELAND YACHT   0100   77 75  210/  5/  8 1008.0
GRAND ISLE       0100   75 77  190/  3/  5 1008.5
SOUTHWEST PASS   0100   73 64  190/  3/  4 1009.8
NEW CANAL        0100   79     210/  5/  7 1008.2
SHELL BEACH      0100   77 77  200/  9/ 11 1007.7

OFFSHORE STATIONS

STATION/POSITION TIME  TEMP    WIND        PRES    WAVE
                       AIR SEA DIR/SP/G            HT/PER
                 (UTC) (F)     (DEG/KT/KT) (MB)    (FT/S)
64 S DAUPHIN ISL 0150   74 74  200/  8/  8 1010.0    5/ 7

$$




USA.gov is the U.S. government's official web portal to all federal, state and local government web resources and services.